Regional Weather Roundup
Issued by NWS

Home | Current Version | Previous Version | Text Only | Print | Product List | Glossary Off
Versions: 1 2 3 4 5 6 7 8 9 10 11 12 13 14 15 16 17 18 19 20 21 22 23 24 25 26 27 28 29 30 31 32 33 34 35 36 37 38 39 40 41 42 43 44 45 46 47 48 49 50

000
ASUS43 KOAX 270210
RWRNE

WEATHER ROUNDUP FOR NEBRASKA
NATIONAL WEATHER SERVICE OMAHA NE
900 PM CDT WED APR 26 2017

NOTES: SATELLITE DATA IS BEING USED TO AUGMENT CLOUD COVER ABOVE
       12000 FEET.
       "FAIR" INDICATES FEW OR NO CLOUDS BELOW 12,000 FEET WITH NO
       SIGNIFICANT WEATHER AND/OR OBSTRUCTIONS TO VISIBILITY.

  * THESE STATIONS DO NOT REPORT WEATHER SUCH AS RAIN...SNOW OR FOG.

NEZ001>004-019>022-054>056-270300-
NEBRASKA PANHANDLE

CITY           SKY/WX    TMP DP  RH WIND       PRES   REMARKS
SCOTTSBLUFF    LGT RAIN  47  38  71 SE9       29.69R
ALLIANCE       CLOUDY    42  31  64 NE7       29.69R
CHADRON        CLEAR     40  31  70 NE8       29.72S WCI  34
KIMBALL        PTCLDY    45  37  72 E3        29.70R
SIDNEY         MOCLDY    42  39  89 E14       29.70S
$$

NEZ057>060-069>072-079>082-270300-
SOUTHWEST NEBRASKA

CITY           SKY/WX    TMP DP  RH WIND       PRES   REMARKS
NORTH PLATTE   CLEAR     40  30  67 N8        29.70S WCI  34
IMPERIAL       PTCLDY    45  32  60 NE9       29.69R
LEXINGTON      CLEAR     39  30  70 N7        29.70R WCI  34
MCCOOK         CLEAR     44  27  51 NE6       29.68S
OGALLALA       CLEAR     46  32  57 NE6       29.70R
$$

NEZ005>010-023>029-035>040-094-270300-
NORTH CENTRAL NEBRASKA

CITY           SKY/WX    TMP DP  RH WIND       PRES   REMARKS
VALENTINE      CLEAR     35  26  69 W8        29.71F WCI  29
AINSWORTH      CLEAR     36  29  78 NW6       29.70F WCI  31
BROKEN BOW     CLEAR     37  28  70 N9        29.69F WCI  30
O`NEILL        CLEAR     37  29  71 N5        29.69S WCI  34
ORD            CLEAR     36  29  75 NW7       29.69S WCI  30
THEDFORD       CLEAR     37  30  73 N3        29.72S
$$

NEZ041-046>049-061>064-073>077-083>087-270300-
SOUTH CENTRAL NEBRASKA

CITY           SKY/WX    TMP DP  RH WIND       PRES   REMARKS
GRAND ISLAND   PTCLDY    38  30  73 N9        29.71R WCI  31
AURORA         CLOUDY    41  30  63 N12       29.70R
HASTINGS       CLEAR     38  29  70 N9        29.71R WCI  31
HEBRON         PTCLDY    43  31  63 N7        29.70R
HOLDREGE       CLEAR     39  28  66 N7        29.69S WCI  34
KEARNEY *      CLEAR     37  27  65 N6        29.70S WCI  33
YORK           CLOUDY    41  30  65 NW14G20   29.70R
$$

NEZ011>018-030>034-042>045-270300-
NORTHEAST NEBRASKA

CITY           SKY/WX    TMP DP  RH WIND       PRES   REMARKS
NORFOLK        CLOUDY    39  30  70 N9        29.67R WCI  33
ALBION         CLEAR     37  29  73 N3        29.68S
BLAIR          CLOUDY    40  32  74 NW13      29.67R WCI  33
FREMONT        CLOUDY    40  32  73 NW10      29.69R WCI  34
TEKAMAH        CLOUDY    40  31  70 NW17      29.68R WCI  31
WAYNE          CLOUDY    38  32  80 N9        29.69R WCI  31
$$

NEZ050>053-065>068-078-088>093-270300-
SOUTHEAST NEBRASKA

CITY           SKY/WX    TMP DP  RH WIND       PRES   REMARKS
LINCOLN        CLOUDY    44  32  62 N12       29.71R
OMAHA EPPLEY   CLOUDY    42  31  64 NW17      29.67R
BEATRICE       CLOUDY    45  35  67 N9        29.70R
FALLS CITY     CLOUDY    43  33  68 NW10      29.67R
NEBRASKA CITY  CLOUDY    42  29  61 N10       29.67S
PLATTSMOUTH    CLOUDY    41  30  63 NW10G22   29.66S
$$

NEZ044-045-051>053-067-270300-
OMAHA AREA

CITY           SKY/WX    TMP DP  RH WIND       PRES   REMARKS
OMAHA EPPLEY   CLOUDY    42  31  64 NW17      29.67R
BLAIR          CLOUDY    40  32  74 NW13      29.67R WCI  33
FREMONT        CLOUDY    40  32  73 NW10      29.69R WCI  34
MILLARD        CLOUDY    43  34  69 NW9G21    29.68R
OFFUTT AFB     CLOUDY    42  31  65 NW10      29.66R
PLATTSMOUTH    CLOUDY    41  30  63 NW10G22   29.66S
WAHOO          CLOUDY    41  32  70 N14       29.68S
$$



USA.gov is the U.S. government's official web portal to all federal, state and local government web resources and services.